Wind_Speed
47 48 48 49 50 52 53 53 52 51 50 50 50 51 53 54 54 56 59 63 65 65 64 63 62 60 59 58 57 56 54 53 53 53 58 63 60 60 62 63 62 61 61 62 64 66 68 70 72 72 72 72 72 72 71 69 68 65 62 60 59 60 61 63 63 62 59 56 54 53 52 51 49 48 46 46 48 44 41 42 43 43 42 46 49 47 44 42
46 48 49 50 50 51 53 54 54 53 53 52 52 52 52 53 54 55 56 59 61 64 66 65 64 63 61 60 58 58 56 55 52 52 59 61 57 59 62 62 62 61 61 61 61 63 64 66 68 70 71 72 72 72 71 70 68 65 63 61 60 63 64 66 64 61 59 56 55 53 52 50 49 48 46 46 49 46 42 42 44 45 45 47 48 45 44 43
46 47 48 50 51 51 52 53 54 55 55 55 54 54 54 53 54 55 56 57 58 60 63 65 66 65 64 62 61 59 59 57 54 56 60 57 54 59 61 62 62 62 62 61 61 61 61 62 64 67 68 70 71 71 71 70 68 66 64 61 62 65 67 67 65 61 60 57 55 53 52 50 49 49 46 47 49 46 44 45 46 46 46 47 46 44 44 44
47 47 48 49 50 52 52 53 54 55 57 57 57 57 56 56 55 55 56 56 57 58 60 62 64 66 66 64 63 62 61 59 58 61 61 56 55 57 58 60 61 61 62 61 61 61 61 61 62 63 65 67 69 69 69 69 68 68 65 63 65 67 68 68 65 62 60 57 55 53 52 50 51 50 47 48 49 48 47 46 46 47 46 47 46 44 42 42
49 49 48 49 50 51 52 53 54 55 56 57 58 58 58 58 58 57 57 56 57 58 59 59 61 63 65 66 65 64 63 62 61 63 62 59 58 57 56 58 59 60 61 61 62 62 61 61 61 61 62 64 65 66 67 68 68 68 66 66 67 67 69 69 65 62 60 57 55 53 52 52 52 51 49 49 50 50 49 47 46 47 48 47 46 44 42 41
50 51 51 50 50 50 52 53 54 55 56 57 58 59 60 60 60 59 59 58 57 58 59 59 60 60 61 64 66 66 65 64 63 65 64 62 60 59 58 57 58 59 59 60 62 62 62 62 61 61 61 61 62 63 65 66 67 66 66 68 68 69 71 69 66 63 61 58 56 54 54 53 52 51 51 51 52 52 49 47 47 48 48 47 45 44 44 43
51 52 53 53 52 52 52 52 54 55 56 57 58 58 60 61 61 61 60 60 59 59 58 59 59 59 60 61 63 65 66 66 66 66 67 65 63 62 60 58 58 58 58 60 61 62 62 62 61 61 61 60 60 61 61 62 63 64 65 67 69 71 72 69 67 64 61 59 58 56 55 53 53 54 54 54 54 53 50 49 48 49 49 47 46 45 45 45
51 52 54 55 55 54 53 53 53 54 56 57 58 59 59 60 61 61 61 61 60 60 60 59 59 59 60 60 60 61 63 67 68 68 69 68 66 64 63 61 59 58 58 58 60 61 61 60 61 61 61 61 60 60 58 58 59 60 63 65 68 71 71 69 67 65 62 60 59 57 55 55 56 57 57 56 57 55 52 51 50 50 50 48 47 46 46 46
52 53 54 56 57 57 56 55 55 54 55 56 58 59 60 61 61 61 61 61 61 61 61 61 60 59 59 60 60 59 63 69 69 69 70 69 67 65 64 63 61 60 59 58 58 59 58 59 60 61 62 61 60 59 57 55 55 57 60 62 65 68 69 68 67 65 64 62 60 59 57 57 58 58 58 58 58 56 53 52 52 51 51 50 48 47 47 48
54 53 54 55 57 58 59 58 57 56 56 56 57 59 60 61 62 61 61 61 61 61 62 62 61 61 59 59 58 58 66 70 67 67 69 69 68 66 65 64 63 62 61 59 58 57 58 59 60 60 61 60 59 59 57 55 54 55 57 58 61 63 64 64 64 64 63 62 61 60 58 59 60 58 58 59 58 56 54 53 52 51 52 52 50 48 48 49
57 55 54 55 57 59 60 60 59 59 58 58 58 58 60 61 62 62 61 61 61 62 62 62 62 61 61 60 57 59 69 70 66 66 68 69 69 67 66 65 64 63 62 61 59 58 59 60 60 59 58 58 58 58 57 56 56 55 55 55 57 58 59 59 60 61 61 61 61 61 59 60 61 60 60 60 59 58 56 54 54 52 52 52 51 50 50 50
60 56 55 55 57 59 61 62 62 61 60 60 59 59 59 60 61 62 62 62 62 62 62 62 62 61 61 59 58 65 71 67 65 66 66 67 68 68 67 66 67 66 65 63 62 61 61 60 58 56 57 57 57 57 56 57 57 56 56 55 55 55 54 55 56 57 58 59 60 61 61 62 63 63 64 63 60 60 58 56 56 55 52 52 53 53 52 51
62 59 56 55 56 58 60 63 63 63 62 62 61 60 60 59 60 61 62 63 62 62 62 62 61 61 61 58 62 71 71 66 64 64 65 66 66 68 68 68 68 68 68 66 65 64 63 62 58 56 56 56 56 55 55 56 56 55 55 55 54 53 52 52 52 54 55 57 58 59 62 65 66 67 66 63 61 60 60 59 57 56 54 54 55 56 54 52
64 60 57 55 56 58 59 62 64 65 64 64 63 62 61 60 60 60 62 62 63 62 62 61 61 60 59 59 67 73 70 66 63 62 65 66 66 67 68 69 69 70 70 69 68 67 65 64 60 58 56 54 54 54 54 55 54 53 53 54 53 52 52 53 52 52 53 53 55 57 61 65 68 68 66 64 62 61 61 60 58 57 56 56 56 56 55 53
64 61 58 56 57 58 59 61 64 66 66 65 65 64 62 62 61 61 61 61 62 62 62 61 60 59 57 60 70 73 69 66 63 64 65 66 68 69 70 71 71 71 72 71 71 69 68 66 62 59 57 55 55 54 53 53 51 51 51 52 52 53 54 54 54 53 52 52 53 54 57 62 67 67 65 63 62 62 62 61 59 59 58 56 56 56 55 55
64 61 58 56 57 58 59 60 63 66 67 67 66 65 65 64 63 62 61 61 61 62 62 60 59 58 57 63 70 70 68 66 67 68 66 65 69 72 74 73 72 72 72 72 72 71 69 67 63 61 59 58 56 53 53 51 49 48 49 50 51 52 53 55 55 54 53 52 52 52 53 58 62 64 63 61 60 62 63 61 60 61 60 57 57 57 57 57
63 61 59 57 57 58 59 60 62 64 67 68 68 67 67 66 65 64 62 61 61 61 61 59 58 58 59 65 69 69 68 68 68 69 66 66 70 75 77 74 72 72 72 73 73 72 70 68 65 63 61 59 56 55 53 49 46 46 47 48 49 50 52 54 55 54 54 53 53 53 53 55 58 60 59 57 58 61 62 62 62 62 60 59 60 59 58 59
61 60 60 57 57 58 59 60 61 63 66 68 69 69 69 68 67 65 64 62 61 61 60 59 58 58 60 65 67 68 67 66 66 67 66 67 71 75 77 75 73 72 73 73 73 72 71 68 66 64 62 59 57 54 51 47 47 47 48 48 49 49 51 53 54 54 54 54 54 54 55 56 57 58 56 53 54 58 60 61 62 62 61 60 62 61 60 60
60 59 60 59 58 58 59 60 61 62 65 67 69 70 70 69 68 66 64 63 61 60 60 60 58 58 61 64 65 66 65 63 64 65 65 66 70 73 75 75 74 73 72 71 72 72 70 69 67 63 60 57 56 54 51 50 51 51 51 51 51 50 51 53 54 53 52 53 53 54 55 57 58 59 56 52 51 54 56 58 59 61 62 62 62 61 60 60
60 58 60 60 59 59 60 60 61 62 64 67 69 70 70 70 69 67 65 64 62 62 61 60 59 59 62 63 64 66 65 64 64 64 64 67 70 71 73 75 74 73 71 69 70 71 71 69 65 62 59 59 58 57 55 55 55 55 54 53 53 52 51 53 54 51 50 51 51 53 54 56 58 59 57 53 51 51 52 53 56 60 62 63 62 61 60 60
60 59 60 61 60 60 61 61 61 62 64 66 68 70 70 70 69 68 66 65 64 63 61 61 60 61 63 64 64 66 65 64 64 64 65 67 70 70 70 73 74 72 70 70 71 71 70 66 62 62 63 63 62 61 60 59 59 57 55 55 54 53 52 54 55 52 51 51 51 53 54 54 57 59 57 54 52 50 49 50 52 55 60 61 61 61 62 61
61 60 60 61 60 60 61 61 61 62 64 65 67 69 69 70 69 68 67 65 65 63 62 62 61 62 66 65 63 64 63 63 64 64 65 68 69 68 68 70 72 73 73 72 72 69 66 62 62 64 65 66 65 64 62 61 61 59 58 57 55 54 55 57 56 54 53 52 53 55 54 55 57 58 56 54 51 50 50 50 49 51 55 58 60 61 61 61
61 60 60 60 59 59 59 60 61 62 63 63 65 67 68 68 68 67 66 65 65 65 63 62 61 63 67 65 62 61 61 63 65 65 66 66 67 68 69 69 71 75 76 73 70 67 63 61 63 65 66 66 66 64 63 62 62 60 59 57 55 57 58 59 59 57 55 55 56 58 57 58 59 57 54 51 50 50 50 50 50 49 51 54 56 57 58 59
61 59 59 59 57 56 57 58 59 60 60 61 62 65 66 67 67 66 67 65 66 66 63 63 62 63 67 67 61 59 60 62 65 65 65 64 65 67 68 68 71 74 75 73 70 67 64 63 65 65 65 65 65 64 64 64 62 60 59 57 58 60 61 63 62 60 59 58 59 60 60 60 60 57 54 50 47 47 48 50 50 50 50 50 50 52 54 58
59 57 56 56 55 54 54 55 57 57 57 58 60 63 64 65 65 65 65 64 65 65 63 62 63 65 69 66 59 58 60 61 62 63 63 62 64 66 67 69 70 71 73 74 72 69 67 67 68 67 65 65 65 65 64 63 62 61 60 60 61 62 65 66 64 62 60 58 59 60 60 61 61 58 54 49 46 45 47 48 49 49 49 49 49 49 51 56
57 55 54 54 52 52 52 53 54 54 54 56 58 59 61 62 62 62 62 62 64 65 63 63 65 67 67 62 58 60 59 59 61 63 62 61 63 65 67 68 68 69 73 77 75 72 69 70 70 68 66 66 66 64 63 62 61 60 60 61 63 64 66 67 65 63 60 59 61 62 60 62 63 60 54 50 47 46 47 47 48 48 49 50 49 49 50 54
56 53 52 52 51 50 51 51 51 52 52 54 55 56 58 59 59 60 61 61 63 64 63 63 66 65 63 61 60 59 56 58 62 62 61 62 63 65 66 66 67 70 74 78 77 73 70 71 70 68 67 66 64 61 61 60 58 58 61 63 63 64 67 68 65 62 61 61 63 62 62 63 64 59 54 51 49 48 48 48 47 48 49 50 50 50 50 51
56 53 52 51 50 50 50 50 50 50 50 52 52 53 56 57 58 59 60 61 62 63 62 63 64 63 61 60 58 56 56 59 61 61 63 65 64 65 65 65 67 70 74 76 76 73 72 71 70 69 68 65 62 60 61 60 57 59 62 62 62 64 67 67 64 62 62 62 62 62 61 62 62 57 53 52 50 48 48 48 48 48 49 51 51 51 50 50
56 54 53 52 50 50 50 49 48 48 49 50 51 52 55 55 56 58 59 59 61 61 61 62 62 61 60 58 56 57 59 60 60 62 65 65 64 65 65 65 68 71 74 75 76 77 75 72 72 72 69 65 63 63 63 60 58 61 63 61 62 64 67 66 63 61 61 61 59 59 59 60 60 55 51 51 49 46 46 48 48 47 47 49 49 49 49 50
57 56 54 53 51 51 51 49 47 48 48 49 50 52 53 54 55 56 57 58 60 60 60 61 60 60 59 57 57 58 59 60 61 62 63 64 65 66 68 71 73 74 75 75 77 80 78 75 75 73 70 68 67 67 65 61 61 64 64 62 63 64 66 66 62 61 60 57 55 55 55 56 57 53 50 49 48 46 46 47 48 47 47 49 48 48 49 51
55 55 54 54 53 53 52 48 47 48 47 48 50 50 51 52 53 54 55 57 58 58 58 58 58 57 56 55 56 58 59 60 60 59 61 64 65 67 71 73 74 75 75 75 77 79 80 77 73 70 70 71 71 69 67 64 64 66 65 63 64 64 65 65 62 61 57 52 52 53 53 53 53 51 48 46 46 45 45 46 47 48 49 50 49 49 51 52
50 51 52 53 53 54 52 48 48 48 47 49 49 49 49 51 52 53 55 57 57 55 55 56 55 55 54 53 55 56 57 58 57 57 60 62 64 66 68 69 70 71 71 71 74 78 78 75 70 69 70 71 71 69 68 66 65 66 66 65 64 64 64 63 61 57 53 50 51 53 53 51 50 49 46 44 43 43 44 45 46 47 49 50 50 51 51 50
44 45 47 49 52 53 51 49 49 49 48 49 49 48 49 51 52 54 55 56 55 53 53 54 54 53 52 53 55 55 56 56 54 55 58 61 64 65 66 67 68 68 68 70 73 76 77 75 71 68 66 66 66 67 66 65 64 65 64 63 63 63 62 60 57 54 50 49 50 52 51 48 47 48 46 43 42 42 43 44 44 45 47 48 50 52 51 49
38 39 41 44 48 50 50 49 51 50 49 49 49 48 49 52 53 53 54 54 53 51 51 52 51 51 52 53 54 53 53 53 52 53 56 59 62 63 64 64 65 67 69 72 73 74 75 74 68 64 62 61 60 61 63 64 64 64 63 63 63 61 58 57 56 53 50 49 50 52 50 47 46 47 45 42 40 40 42 44 44 45 47 49 51 51 49 47
34 34 35 38 42 46 48 49 51 50 49 49 48 48 51 53 52 52 53 53 52 50 50 50 50 51 52 52 51 51 51 51 51 51 53 56 58 59 59 60 62 65 68 70 71 72 74 72 67 64 62 61 60 60 62 64 63 62 63 63 60 57 58 58 57 54 51 51 52 52 49 46 45 45 43 40 37 37 40 43 44 45 47 49 52 51 48 46
30 29 31 33 36 41 45 48 50 50 50 48 48 51 54 53 51 52 53 52 50 49 48 48 49 50 50 49 49 49 49 49 49 49 51 54 56 57 58 59 61 64 66 67 68 71 73 72 70 67 64 63 62 62 62 62 61 61 62 58 55 57 61 61 58 55 52 52 53 51 47 44 43 42 41 38 34 34 37 41 44 46 48 50 51 51 48 46
26 26 27 28 32 37 43 47 49 49 49 48 51 55 54 51 51 52 52 51 50 48 47 47 47 48 48 47 47 47 47 47 47 47 50 53 55 56 57 58 61 63 65 66 68 71 72 72 71 67 64 63 62 63 63 62 61 60 57 55 58 64 64 60 58 55 53 52 52 48 45 42 41 40 40 37 34 34 37 42 46 47 49 51 52 51 48 46
23 23 24 26 31 36 40 44 47 48 48 51 54 54 51 50 52 52 52 51 49 47 46 45 45 45 46 46 45 44 44 44 45 47 49 52 54 55 55 56 59 61 64 66 68 71 73 74 72 68 65 63 62 64 62 59 58 56 55 59 65 66 62 57 55 53 51 51 49 45 42 41 40 39 39 40 41 43 44 46 48 49 51 53 52 50 47 46
20 21 22 25 29 32 35 40 44 46 50 54 55 53 51 52 53 52 51 49 47 45 44 43 43 44 45 44 42 41 41 42 43 47 49 51 53 54 55 55 57 60 63 66 68 71 74 75 73 69 66 66 65 63 58 55 55 55 58 63 65 62 59 56 54 52 52 50 47 44 42 40 39 38 40 42 44 47 50 47 45 46 50 52 51 49 48 47
17 18 19 22 25 28 32 36 41 47 53 57 55 53 53 53 52 51 49 47 45 44 42 41 41 42 42 41 39 39 40 41 43 46 49 52 54 55 55 55 57 60 62 64 67 71 75 76 74 70 69 68 64 57 54 55 57 58 59 61 60 59 58 56 55 53 53 50 46 44 43 41 41 40 41 44 45 48 52 51 47 45 47 49 50 49 49 48
13 15 17 20 23 26 30 35 43 51 56 57 55 53 52 52 51 49 47 45 44 42 40 39 39 39 39 39 38 37 38 40 43 45 48 51 54 54 53 54 57 60 63 65 67 71 74 76 75 72 70 65 58 55 57 60 61 61 61 61 61 60 59 58 55 53 52 50 47 44 43 44 45 44 44 45 47 49 53 55 55 52 49 48 49 50 50 50
11 13 15 18 22 26 31 36 44 51 54 53 52 52 51 51 50 47 45 45 43 41 39 38 38 37 37 37 37 36 37 40 43 45 48 50 51 53 53 54 57 60 62 63 65 69 73 75 75 73 68 63 59 60 63 64 64 64 63 63 63 63 61 58 55 54 54 53 50 47 46 47 47 46 46 48 49 52 54 57 59 58 54 51 50 51 52 51
9 11 14 17 20 25 29 33 38 44 48 50 51 52 52 51 49 47 46 45 42 39 37 36 35 35 35 35 35 35 36 39 42 45 47 49 50 53 54 55 58 60 61 61 64 68 71 74 75 72 68 64 64 65 67 67 66 65 63 62 63 62 59 56 55 57 57 57 54 51 49 48 48 47 48 49 50 53 55 56 58 58 56 54 52 52 51 50
6 9 12 15 18 21 25 29 33 39 44 48 50 50 50 50 49 48 46 42 39 36 35 33 33 32 33 34 34 35 37 38 41 43 46 49 51 52 53 55 57 58 58 59 62 64 67 71 73 72 69 68 68 69 69 67 65 62 61 61 62 61 59 57 57 58 58 57 55 52 50 49 48 49 49 49 50 52 53 55 56 55 53 53 53 53 51 50
2 6 10 13 15 17 20 25 30 36 42 46 48 48 48 47 46 43 40 37 34 32 32 33 34 34 35 35 35 36 37 38 40 42 45 49 51 52 54 55 56 56 56 58 60 61 64 67 70 71 70 69 68 67 65 63 62 61 61 61 62 61 59 58 58 57 56 56 55 53 51 48 48 49 49 49 49 51 52 53 52 50 49 51 52 52 52 51
5 7 10 13 16 17 20 24 30 36 40 43 44 44 43 41 39 36 33 31 31 31 34 35 35 35 37 38 38 38 38 38 40 42 45 48 51 53 54 54 54 54 56 58 59 60 61 64 67 69 70 69 68 66 65 64 63 63 62 63 63 62 60 59 59 57 55 56 55 53 50 48 48 49 50 49 49 50 52 51 48 45 45 47 49 49 50 50
7 8 11 15 17 19 22 26 29 33 36 38 39 38 37 36 35 34 33 33 34 36 37 36 35 35 37 38 38 38 38 37 39 41 44 46 49 51 52 53 53 53 55 57 57 57 58 61 64 66 69 70 70 69 68 67 65 64 63 64 63 62 60 59 57 56 56 56 55 52 49 47 47 49 50 49 49 51 52 49 46 44 44 44 45 46 47 47
8 8 10 13 17 19 21 25 28 30 33 35 36 37 38 39 39 39 39 39 39 38 37 36 35 37 38 39 38 38 37 36 38 41 44 46 48 51 53 55 54 54 55 54 54 54 56 57 59 61 64 66 67 67 68 67 66 65 64 63 63 61 60 58 57 57 57 56 53 51 49 48 48 48 49 49 50 52 52 49 47 46 45 44 44 44 44 44
10 10 12 14 18 21 24 27 30 33 35 37 39 39 40 40 39 39 38 37 37 36 35 35 36 38 39 39 38 37 37 37 39 41 44 47 50 52 55 57 58 57 56 54 53 53 53 53 54 55 58 60 61 63 64 64 64 64 63 62 61 60 59 57 57 57 56 54 51 49 49 48 48 47 46 48 51 52 51 50 49 48 46 44 44 44 44 43
13 10 12 14 17 21 24 28 30 32 34 34 35 35 34 33 33 33 32 32 32 33 33 34 36 39 40 40 39 38 37 38 39 41 43 46 49 52 55 57 58 58 57 55 54 52 51 51 51 52 54 56 57 59 60 60 60 60 59 59 58 57 56 55 54 54 52 49 48 48 47 45 44 44 44 47 50 51 50 50 49 47 44 43 44 45 45 44
15 11 13 16 18 20 23 26 29 30 31 31 32 32 32 32 32 32 31 31 32 32 33 34 36 38 40 41 41 40 40 39 39 40 41 44 47 50 53 55 55 56 56 55 54 53 52 51 50 51 52 53 54 55 55 56 56 55 55 55 54 53 51 51 50 49 48 47 46 45 43 41 41 43 44 46 50 51 51 51 49 45 44 44 45 46 46 46
15 13 14 18 21 22 25 27 30 31 32 33 34 34 35 35 35 34 34 34 34 34 34 35 36 38 39 41 42 43 43 41 40 40 40 43 45 48 51 52 53 54 55 55 55 54 53 52 50 50 51 51 50 50 51 51 52 52 52 50 49 48 47 47 47 47 47 46 45 42 40 40 43 45 45 47 50 51 51 50 48 45 44 45 47 47 47 48
Wind_Direction
272 269 266 263 261 259 258 257 256 254 254 253 252 250 249 247 246 245 245 245 244 244 244 243 242 242 242 242 241 241 240 240 240 240 241 241 241 242 242 241 241 241 240 240 239 239 239 239 239 239 239 239 239 239 239 239 239 239 239 238 239 239 239 238 238 240 241 242 242 243 245 246 246 246 246 248 251 250 246 247 248 247 243 245 248 250 250 250
274 271 268 266 263 260 258 257 256 255 253 252 252 251 250 249 247 245 244 244 244 244 244 243 242 241 241 241 242 241 241 239 239 239 241 240 240 241 241 241 241 241 240 239 239 239 239 239 239 239 239 239 239 239 239 239 239 239 238 238 238 239 239 239 239 240 241 241 242 243 244 245 245 245 245 247 249 249 245 243 245 245 243 244 247 250 250 249
275 272 270 267 264 262 259 257 256 255 254 253 252 251 250 249 248 247 245 244 243 243 244 244 243 242 241 241 241 241 241 240 238 239 240 240 239 239 240 240 240 240 240 239 239 239 239 239 239 239 239 239 239 239 239 239 239 238 238 237 238 239 239 240 240 240 240 241 242 243 244 245 245 244 243 245 247 247 245 242 243 244 245 246 248 249 249 250
276 273 271 268 266 263 261 259 257 255 254 254 253 252 250 249 248 247 246 245 244 243 243 243 243 243 242 241 240 241 241 240 239 240 240 239 238 238 239 240 239 239 239 239 239 239 238 238 238 239 239 239 239 238 239 239 238 237 237 236 237 238 240 240 240 240 241 242 242 243 244 244 243 242 241 243 244 245 243 242 243 244 244 246 248 248 248 249
277 273 270 269 267 264 262 260 258 256 254 254 254 253 252 250 248 247 246 246 245 244 243 242 242 242 242 241 241 240 240 240 240 241 241 239 238 238 238 239 239 238 238 238 238 238 237 237 238 238 238 239 239 238 238 238 238 237 236 236 237 238 239 240 240 240 240 241 241 241 242 242 243 242 241 241 242 242 242 242 242 243 244 245 247 247 247 246
280 275 271 268 266 265 263 261 259 257 255 254 253 253 253 253 251 249 247 245 245 245 244 243 242 241 241 241 241 240 240 239 240 242 242 239 238 238 237 238 238 237 237 237 237 237 237 237 237 238 238 239 239 238 238 238 237 237 236 236 237 238 239 240 239 239 239 240 240 239 240 241 242 243 241 241 242 242 242 242 241 242 243 244 245 245 246 245
282 276 271 268 265 264 262 261 260 258 256 255 254 253 252 252 252 251 249 247 245 244 244 244 243 242 241 240 241 241 240 240 239 240 241 239 238 238 237 237 237 237 237 237 237 237 236 236 237 237 238 238 238 238 238 238 238 237 237 237 238 239 240 240 239 239 239 239 239 239 239 239 240 241 240 240 241 241 241 242 242 242 243 243 243 243 244 244
286 278 271 267 265 263 261 260 260 259 257 256 254 253 252 251 251 251 251 249 247 245 243 243 243 242 242 240 240 240 241 240 238 238 239 238 237 238 238 237 237 237 237 237 237 237 237 237 237 237 237 237 237 237 238 238 238 238 237 237 238 239 240 240 240 239 239 238 239 239 238 238 239 240 241 241 241 241 240 241 242 242 243 243 243 243 244 244
291 281 273 267 264 262 260 259 258 258 257 256 255 254 253 252 251 250 250 250 249 247 245 243 242 242 242 241 240 240 240 239 237 237 238 239 237 238 239 238 237 237 237 237 237 238 237 237 236 236 236 236 236 237 237 237 237 237 237 237 238 240 241 241 240 240 239 238 238 238 238 238 238 239 241 242 242 243 241 240 241 242 243 243 242 243 244 244
294 285 275 268 263 261 259 258 257 256 256 256 255 254 253 252 251 250 249 249 249 248 246 244 242 241 241 241 240 241 241 239 237 237 238 239 238 238 239 239 239 238 238 237 237 237 237 236 235 235 236 236 236 237 236 236 236 237 237 238 239 240 242 242 242 241 240 239 238 238 238 239 239 238 239 241 242 242 241 240 241 242 243 243 241 241 242 243
296 288 277 268 263 260 258 257 256 255 254 254 254 254 253 252 251 250 249 248 248 248 247 245 243 242 241 241 240 241 242 239 236 237 237 238 238 237 237 238 239 239 238 237 237 237 237 236 236 235 236 236 236 236 235 234 234 235 236 237 239 239 241 242 242 241 240 239 239 238 238 240 240 238 237 238 239 240 240 240 240 240 242 243 242 240 241 242
296 290 280 270 263 259 257 255 254 254 253 253 253 252 253 252 251 250 249 248 248 247 247 246 244 242 241 240 240 241 242 240 237 237 237 238 238 237 236 236 236 237 237 236 236 236 236 236 235 235 236 235 235 235 235 235 234 234 235 237 238 239 240 241 241 241 240 239 238 238 237 238 239 237 235 236 237 239 239 239 239 239 240 242 242 240 241 242
296 290 282 272 264 260 256 253 253 252 252 252 251 251 251 251 251 250 249 248 247 247 247 246 245 243 241 240 241 242 241 240 239 237 237 237 238 237 236 235 236 236 235 235 234 235 235 236 235 234 235 235 235 235 235 235 234 234 236 237 238 239 240 240 240 239 239 238 237 237 237 238 238 237 236 235 236 238 239 238 239 239 240 241 242 241 241 242
296 290 283 273 266 261 256 253 251 250 251 251 250 250 250 250 250 249 249 248 247 247 246 246 245 244 242 241 242 242 241 240 239 238 237 236 237 237 236 235 234 235 235 235 234 234 234 234 234 233 234 235 235 235 234 235 235 235 236 238 238 239 239 238 238 238 237 237 237 237 238 239 239 238 237 235 235 237 239 238 238 239 239 241 243 243 242 242
295 289 282 274 267 262 258 253 250 248 248 249 249 249 249 249 249 248 248 247 247 246 246 245 245 244 242 242 243 242 240 240 239 237 236 235 235 236 236 234 233 233 234 234 235 234 234 234 233 233 233 234 234 234 234 234 235 235 236 237 238 237 238 238 237 237 237 236 236 237 238 240 241 240 238 236 236 237 239 239 238 238 238 239 242 244 243 243
294 288 282 274 268 263 259 255 251 248 246 246 248 248 248 248 247 247 247 247 246 246 245 245 244 244 242 242 244 242 240 238 236 235 234 233 233 234 234 233 232 232 232 233 234 234 235 234 233 233 233 233 234 234 234 234 234 235 236 237 238 238 239 239 237 237 237 236 236 237 238 241 242 242 240 237 236 237 238 239 239 240 239 239 241 243 243 243
293 287 281 274 268 264 260 257 253 249 246 244 245 246 246 246 246 246 246 246 246 245 245 245 244 243 242 242 243 243 240 237 236 236 234 233 233 233 233 232 232 232 232 233 233 233 234 234 234 234 234 234 234 235 235 235 235 236 237 237 238 238 239 240 238 236 236 236 236 237 238 241 242 243 241 238 237 237 238 238 239 241 240 240 241 242 243 244
291 285 280 275 269 264 261 258 255 250 246 244 243 243 244 245 245 245 245 245 245 245 245 244 243 243 242 243 243 243 241 239 237 237 235 234 234 235 234 233 232 232 232 232 233 233 234 234 234 234 235 235 236 236 237 236 235 235 236 235 236 237 239 241 239 236 236 236 236 238 239 241 242 243 241 238 237 238 238 238 239 241 242 241 241 242 243 245
290 283 279 275 270 265 262 259 256 252 248 244 242 241 242 243 243 244 244 244 244 244 244 243 243 243 243 243 244 244 243 240 238 236 235 234 235 236 236 234 233 233 233 233 233 234 234 233 233 234 235 236 236 236 235 234 233 233 233 234 235 236 238 241 241 238 238 238 237 239 241 242 243 243 241 237 236 238 239 239 239 241 242 242 242 243 244 246
289 282 277 274 270 266 263 260 256 253 249 245 242 241 241 241 242 242 243 243 243 243 242 242 242 242 242 242 242 243 242 240 237 234 233 233 233 234 235 235 234 233 234 233 234 234 233 233 233 234 233 233 233 232 231 231 232 232 233 235 236 237 239 242 243 241 240 240 239 240 242 243 244 244 241 237 236 237 239 240 240 241 243 243 243 244 244 246
288 282 277 273 270 267 263 260 257 253 249 246 243 241 240 240 240 241 241 241 242 242 241 240 240 241 242 241 241 241 241 240 238 234 232 232 233 232 233 234 233 233 233 234 233 233 232 232 232 233 232 231 231 230 230 230 232 232 233 235 237 238 240 243 244 242 242 243 243 242 242 243 245 245 242 239 236 236 238 239 240 241 242 243 244 243 244 245
288 282 277 273 270 267 263 260 257 253 250 246 243 241 240 239 239 239 240 240 241 241 240 239 238 240 241 240 240 241 241 241 240 236 233 231 232 232 232 232 232 232 231 232 233 233 232 232 231 231 231 231 231 231 230 231 232 233 234 236 238 239 240 242 244 244 243 245 246 246 244 243 245 245 243 240 237 236 236 238 239 240 242 243 243 243 244 244
287 282 277 272 269 266 263 260 256 253 250 247 244 242 240 239 238 238 238 239 240 240 239 238 237 238 241 240 239 241 241 241 240 238 234 232 232 232 231 230 230 230 230 231 232 233 231 230 230 230 231 231 232 232 232 232 233 234 236 237 239 240 241 242 243 243 243 244 245 246 245 244 245 245 244 241 238 237 237 238 239 240 242 243 244 245 245 245
286 281 276 272 269 265 261 258 255 252 250 247 245 242 240 239 238 237 237 237 238 239 238 238 236 237 241 240 238 240 242 241 240 239 236 232 231 231 231 229 228 228 229 229 230 230 229 227 228 228 229 230 231 231 231 232 234 234 236 237 238 239 240 241 241 242 242 243 245 247 247 247 246 246 244 242 240 239 238 239 239 239 241 244 246 246 245 245
285 280 275 272 268 264 260 257 254 252 249 246 244 242 240 239 237 236 236 235 237 237 236 236 235 235 238 239 238 240 241 242 241 240 237 234 231 231 230 229 228 227 227 227 228 227 226 226 226 226 226 228 229 230 230 231 233 234 234 235 236 238 239 240 240 241 242 243 245 247 248 249 249 248 245 242 240 240 239 240 240 240 241 242 244 245 245 245
284 279 274 271 267 263 260 256 253 250 248 245 243 241 240 239 237 236 235 234 235 236 234 234 234 235 238 239 239 239 240 241 241 239 236 234 231 230 230 229 228 226 225 225 225 225 224 225 226 226 226 227 228 229 230 231 232 233 234 234 235 237 239 240 241 241 242 242 244 245 246 248 249 248 245 242 240 239 239 239 240 240 240 241 242 243 245 245
282 278 274 270 267 263 259 255 252 249 246 243 241 240 239 237 236 234 233 232 233 234 232 232 234 236 237 238 238 239 239 240 240 238 236 233 230 229 228 228 228 226 225 224 223 223 224 224 225 225 226 227 229 230 231 232 232 233 233 233 234 236 239 240 240 241 241 242 243 245 246 247 248 248 246 244 240 238 239 238 238 239 239 240 240 241 243 245
281 276 272 268 265 262 258 254 251 248 244 242 240 238 236 235 234 232 231 230 231 232 231 232 234 235 236 237 239 240 239 239 238 236 235 232 230 228 227 227 227 227 226 224 222 222 223 223 224 225 225 226 228 229 230 230 229 230 231 231 233 235 238 239 240 240 241 242 244 246 247 249 250 249 248 246 242 239 239 239 238 238 239 240 240 241 243 244
280 275 270 266 263 260 257 253 250 246 243 240 238 235 234 233 232 230 229 229 229 230 230 231 233 234 236 237 238 238 238 237 236 234 234 232 230 228 226 225 225 225 225 223 221 220 221 221 222 223 223 224 225 226 227 227 226 228 230 230 232 234 238 240 240 241 242 244 245 247 247 249 250 249 247 246 244 240 240 240 239 238 240 242 242 242 242 243
277 273 268 264 260 257 255 252 248 245 241 238 236 234 232 231 230 229 228 228 228 228 229 231 232 234 235 236 237 238 238 236 233 232 232 232 230 228 225 223 222 223 222 221 219 219 219 219 220 221 220 221 222 223 224 224 224 227 229 229 231 235 238 241 242 242 243 244 245 246 246 247 249 248 246 245 244 240 238 239 239 238 238 240 241 240 240 241
274 270 266 262 258 254 252 249 245 243 240 236 234 232 231 229 229 228 228 228 227 227 229 231 233 235 236 236 237 238 238 236 233 231 231 231 229 228 226 225 223 222 221 219 218 218 219 219 220 220 220 221 222 223 224 223 224 228 230 230 233 235 239 242 243 243 244 243 244 244 244 245 247 247 245 245 244 242 239 238 238 237 237 238 239 239 239 240
271 267 262 258 255 252 250 246 243 241 237 235 233 231 229 227 227 227 227 227 227 227 229 231 233 235 236 237 238 238 237 236 233 231 230 230 228 227 226 227 227 225 222 220 219 218 219 219 220 221 221 222 223 224 225 225 227 230 232 233 236 238 241 244 245 245 244 242 241 242 243 243 245 246 245 243 243 242 241 238 237 238 238 239 240 240 240 240
270 264 259 254 251 249 247 243 239 237 234 232 230 228 226 225 225 225 226 227 227 227 228 231 232 235 236 236 236 236 235 235 233 230 229 227 226 224 223 222 223 223 221 220 220 218 218 218 219 221 222 224 224 225 227 228 229 233 235 237 239 241 243 245 246 246 243 241 241 242 242 241 243 245 244 241 240 240 241 240 237 237 238 238 239 239 239 240
269 262 257 251 247 245 243 239 236 234 232 230 228 226 224 224 224 225 225 226 227 226 228 230 232 235 236 236 235 234 234 234 231 228 226 225 224 223 222 219 219 219 218 217 218 217 217 218 219 221 224 226 226 226 227 227 228 231 234 235 237 239 241 243 243 243 242 241 241 240 240 238 239 241 242 241 239 239 241 241 239 237 237 238 239 239 238 239
269 262 255 249 244 241 239 236 234 232 229 227 226 224 223 223 223 223 225 226 226 226 227 229 232 234 235 234 233 233 233 231 228 224 222 222 223 222 221 219 217 217 217 216 216 215 215 215 217 218 221 223 224 225 225 226 227 229 231 233 234 236 238 238 239 239 239 240 239 238 237 235 235 237 239 240 240 240 241 241 241 239 238 239 240 240 239 240
270 261 252 246 240 236 234 233 231 229 226 224 222 221 222 223 222 223 225 225 226 226 226 228 231 233 233 232 233 233 232 229 224 221 219 219 220 219 218 216 215 215 216 215 215 214 213 213 215 215 216 219 221 221 223 224 225 227 229 232 234 235 235 235 236 237 237 238 238 237 236 235 233 233 234 235 237 240 243 243 241 239 239 239 240 241 239 239
269 260 251 243 235 230 228 227 227 226 224 220 219 220 221 222 221 223 224 225 225 225 225 227 229 231 232 231 232 231 229 225 221 218 217 217 217 217 216 214 213 212 213 213 213 213 212 212 214 214 214 217 218 219 220 220 221 222 224 227 230 232 233 234 236 238 237 237 238 238 238 237 234 231 230 227 224 226 236 242 240 236 237 238 239 239 238 239
264 254 245 236 230 226 223 222 221 221 220 217 218 220 220 220 221 222 223 224 224 224 224 225 226 228 231 231 230 230 226 222 218 215 214 215 215 215 215 213 212 211 211 210 211 211 211 211 213 214 214 215 216 218 219 218 219 220 220 222 226 230 233 236 239 241 241 239 239 240 241 240 238 233 229 226 219 216 222 233 237 235 234 236 239 239 238 238
261 249 239 232 227 224 221 218 216 215 215 215 216 217 217 218 220 221 222 223 223 223 222 222 223 226 229 230 228 226 223 219 215 213 211 212 214 214 212 211 210 211 211 210 209 210 210 210 212 213 213 214 214 216 218 218 219 219 219 222 226 230 234 237 240 242 242 241 239 239 240 240 240 237 232 229 224 219 219 223 230 233 233 234 237 239 238 237
258 246 237 230 225 220 216 213 210 209 211 213 214 214 215 216 218 220 221 222 222 221 220 220 222 225 228 228 225 222 218 215 212 211 210 209 211 213 211 209 208 208 210 210 209 209 209 210 211 212 213 214 213 214 217 219 220 220 221 224 228 232 235 238 241 242 244 244 241 240 239 238 237 235 233 231 228 225 224 224 225 228 231 233 235 238 239 238
250 237 228 223 218 213 209 205 203 205 208 211 212 212 212 214 216 217 218 219 220 219 219 220 222 224 226 225 222 218 214 212 209 208 209 210 210 211 210 209 207 207 208 209 209 209 210 210 210 211 213 214 212 212 215 217 218 219 220 223 227 231 234 237 240 243 246 246 244 242 241 239 237 234 232 231 229 228 229 228 227 227 229 232 234 236 239 240
240 225 218 214 211 208 205 203 202 204 207 209 209 209 211 212 214 215 215 216 216 215 216 218 220 221 222 222 219 214 211 210 208 206 207 209 210 210 209 208 207 207 208 209 208 209 210 211 211 212 212 212 212 212 215 216 218 219 221 224 227 230 233 235 238 242 244 244 243 241 239 238 238 236 233 232 230 229 229 229 228 229 230 230 231 233 236 238
231 215 208 205 205 204 204 204 204 204 204 206 206 207 208 210 211 212 214 214 214 213 214 216 217 218 219 219 215 210 207 208 208 206 205 205 207 209 209 207 207 208 207 208 209 209 210 211 212 212 212 212 212 214 216 217 218 220 222 226 230 233 235 237 239 240 242 244 242 240 239 238 238 238 236 234 232 231 230 229 228 229 230 229 229 231 233 236
230 209 198 195 197 200 200 201 202 202 201 202 204 205 206 208 209 210 212 212 211 211 211 213 214 214 215 215 212 207 204 205 205 206 205 204 204 206 208 208 208 208 207 208 209 210 211 212 213 212 212 213 214 216 219 220 222 224 226 229 232 235 237 238 240 242 244 246 247 245 243 241 240 239 238 236 234 233 231 229 226 227 229 230 230 231 233 235
182 187 183 179 181 190 195 194 195 198 198 200 202 203 205 207 208 210 210 209 209 209 210 210 208 207 206 206 205 204 202 202 203 203 205 204 202 202 204 206 207 207 206 207 209 210 211 212 213 213 213 215 218 220 223 226 227 228 229 232 235 237 239 240 242 243 245 247 249 249 247 244 242 241 240 238 236 233 230 226 224 225 228 230 232 233 234 237
118 143 158 162 164 174 183 186 188 192 195 197 199 201 204 206 208 209 209 208 208 209 209 207 205 204 202 200 200 199 199 200 200 200 203 204 202 200 201 203 206 206 206 207 208 209 210 211 212 213 214 215 217 220 222 225 227 228 230 233 235 237 238 239 241 242 243 245 247 247 247 244 242 242 241 239 235 230 224 221 221 224 228 231 233 235 236 238
104 131 150 158 160 166 174 177 182 187 190 193 196 198 200 203 205 206 206 206 206 206 206 203 201 201 200 199 199 198 198 198 198 199 201 203 202 201 200 201 204 206 207 208 209 209 210 211 212 213 214 215 217 219 220 222 224 226 228 230 232 234 235 236 239 240 242 243 244 245 244 243 242 242 241 238 230 222 217 216 217 221 226 230 234 236 238 241
81 116 139 151 153 157 164 169 174 179 183 186 190 193 195 197 199 201 202 202 202 202 202 199 196 196 197 198 199 199 197 196 197 198 199 200 200 200 199 199 201 204 207 209 210 210 210 211 212 213 215 216 217 220 222 223 225 226 227 229 230 232 233 234 235 237 239 240 241 241 241 240 240 240 238 233 224 216 213 214 216 219 224 229 233 236 239 242
72 106 128 140 147 151 158 164 168 172 177 182 185 189 193 195 196 198 200 200 200 200 199 197 194 193 194 196 198 198 197 196 197 198 198 198 198 199 199 199 199 201 205 207 209 211 212 213 212 213 215 216 217 219 221 223 225 226 228 229 231 232 233 234 235 237 239 240 239 239 239 239 239 237 232 225 219 214 213 214 217 219 223 228 232 236 240 243
69 92 119 132 142 149 156 161 165 169 174 179 183 186 189 192 194 196 197 198 199 198 197 196 193 191 192 194 197 198 199 199 199 199 199 199 199 199 200 201 201 201 203 205 208 210 212 213 213 213 215 216 216 218 220 222 225 227 229 231 233 235 236 237 238 240 241 240 240 239 238 237 234 231 226 221 218 216 216 217 218 220 223 228 233 237 239 242
83 93 114 127 135 143 151 155 159 163 167 173 177 179 181 185 188 190 191 194 196 196 194 193 192 191 191 193 195 197 200 201 201 200 200 201 201 201 201 202 204 204 204 205 207 209 211 212 213 214 216 217 217 219 220 222 224 226 228 231 233 234 237 238 239 240 241 240 240 238 235 229 225 224 223 220 218 218 219 219 219 221 225 230 235 239 242 243
98 107 121 132 137 143 150 155 158 161 165 170 174 176 179 182 184 187 189 191 193 193 192 191 191 191 191 193 195 197 199 201 202 202 201 201 202 203 203 203 204 206 207 207 208 209 211 212 213 214 217 218 218 219 220 221 223 225 226 228 231 232 234 236 238 239 239 239 237 231 225 221 219 220 221 219 218 220 222 223 222 224 228 233 237 242 245 247
Height
10623 10622 10622 10622 10622 10622 10623 10623 10625 10626 10627 10628 10628 10629 10630 10632 10634 10636 10637 10640 10642 10644 10647 10650 10653 10656 10660 10663 10666 10668 10671 10675 10677 10680 10676 10673 10682 10688 10687 10689 10691 10697 10700 10703 10705 10708 10711 10714 10717 10721 10726 10728 10732 10735 10740 10746 10749 10757 10764 10768 10769 10766 10765 10763 10764 10768 10775 10782 10784 10786 10788 10791 10795 10796 10800 10804 10804 10810 10815 10814 10812 10812 10812 10809 10807 10810 10813 10815
10616 10616 10615 10615 10615 10615 10616 10617 10617 10618 10619 10620 10621 10622 10623 10625 10626 10628 10630 10632 10635 10637 10639 10642 10646 10649 10653 10656 10660 10662 10666 10668 10672 10674 10665 10667 10681 10681 10679 10683 10687 10690 10694 10697 10699 10702 10705 10708 10712 10715 10719 10722 10725 10729 10735 10740 10745 10752 10756 10761 10762 10757 10755 10755 10761 10768 10772 10777 10780 10783 10784 10787 10791 10792 10797 10800 10799 10804 10809 10809 10807 10806 10806 10804 10805 10808 10810 10811
10610 10609 10608 10608 10608 10608 10608 10609 10610 10611 10612 10613 10614 10615 10616 10617 10619 10621 10622 10625 10627 10630 10632 10635 10638 10642 10645 10649 10653 10656 10659 10662 10667 10663 10656 10667 10677 10673 10673 10677 10681 10684 10687 10691 10693 10696 10699 10703 10706 10708 10712 10715 10719 10724 10729 10733 10740 10746 10750 10755 10752 10747 10748 10749 10757 10764 10768 10773 10777 10780 10781 10785 10787 10787 10793 10796 10795 10799 10802 10803 10802 10801 10801 10801 10803 10806 10807 10808
10603 10602 10601 10601 10601 10600 10601 10601 10603 10603 10604 10605 10606 10607 10609 10610 10611 10613 10615 10618 10620 10622 10625 10628 10631 10634 10638 10642 10645 10648 10651 10655 10659 10653 10653 10665 10667 10665 10669 10671 10675 10679 10681 10685 10687 10690 10694 10696 10699 10702 10705 10708 10712 10718 10722 10727 10733 10738 10744 10746 10741 10741 10742 10744 10753 10761 10765 10771 10775 10776 10778 10781 10779 10781 10789 10791 10791 10793 10795 10798 10799 10798 10797 10797 10801 10803 10805 10806
10596 10595 10594 10594 10593 10593 10593 10594 10595 10595 10596 10598 10598 10600 10601 10602 10604 10605 10608 10610 10612 10615 10617 10621 10624 10627 10631 10634 10638 10640 10643 10648 10650 10646 10650 10659 10659 10660 10664 10665 10669 10672 10675 10679 10680 10684 10687 10690 10693 10696 10699 10702 10707 10712 10715 10720 10725 10731 10737 10737 10735 10736 10734 10739 10750 10757 10762 10767 10770 10772 10774 10774 10773 10777 10784 10785 10785 10787 10790 10794 10794 10793 10793 10795 10798 10800 10802 10804
10588 10587 10586 10586 10585 10585 10585 10586 10586 10587 10588 10589 10591 10592 10593 10594 10595 10597 10600 10603 10606 10608 10610 10613 10617 10620 10623 10627 10630 10632 10636 10640 10642 10641 10643 10650 10652 10654 10657 10660 10663 10666 10670 10672 10674 10678 10681 10685 10688 10691 10693 10696 10702 10705 10709 10714 10719 10725 10729 10729 10729 10729 10727 10735 10746 10752 10757 10761 10765 10767 10768 10768 10768 10772 10778 10779 10779 10782 10786 10789 10790 10789 10789 10792 10794 10796 10798 10800
10581 10579 10578 10577 10577 10577 10577 10578 10578 10579 10580 10581 10582 10583 10584 10586 10587 10590 10592 10595 10598 10600 10603 10606 10609 10613 10616 10619 10623 10625 10629 10631 10633 10633 10634 10640 10645 10646 10650 10654 10657 10660 10665 10666 10668 10671 10675 10680 10683 10685 10688 10692 10696 10698 10703 10709 10713 10719 10722 10722 10723 10721 10722 10732 10741 10746 10753 10756 10759 10761 10763 10764 10762 10766 10771 10772 10773 10777 10782 10783 10785 10784 10786 10789 10790 10792 10794 10795
10573 10571 10570 10569 10568 10568 10568 10569 10569 10570 10571 10572 10573 10574 10576 10577 10579 10582 10584 10588 10590 10593 10596 10598 10602 10606 10608 10613 10615 10619 10622 10619 10621 10624 10625 10631 10638 10641 10644 10649 10652 10655 10658 10660 10662 10665 10670 10675 10677 10680 10683 10686 10689 10692 10699 10704 10709 10713 10714 10715 10715 10715 10719 10728 10735 10742 10747 10751 10754 10755 10758 10758 10756 10761 10765 10766 10767 10772 10778 10779 10779 10780 10782 10785 10787 10789 10791 10790
10564 10563 10561 10560 10559 10559 10560 10560 10561 10562 10562 10564 10565 10566 10567 10568 10570 10573 10576 10579 10582 10585 10588 10591 10596 10598 10601 10606 10608 10614 10609 10603 10611 10617 10619 10625 10632 10637 10640 10643 10647 10649 10652 10655 10657 10661 10666 10669 10670 10673 10676 10679 10684 10689 10695 10701 10704 10705 10706 10708 10710 10711 10715 10723 10730 10736 10740 10745 10748 10749 10752 10751 10751 10758 10760 10761 10763 10767 10773 10774 10775 10776 10777 10780 10783 10785 10785 10785
10555 10553 10552 10551 10550 10550 10550 10551 10552 10553 10554 10555 10556 10557 10558 10560 10562 10564 10568 10571 10574 10577 10579 10583 10588 10590 10595 10597 10603 10606 10592 10592 10608 10613 10614 10619 10625 10631 10634 10637 10641 10643 10646 10649 10653 10656 10659 10660 10662 10666 10670 10676 10681 10685 10691 10696 10698 10698 10701 10703 10706 10708 10712 10718 10724 10729 10735 10739 10742 10744 10745 10744 10745 10753 10756 10756 10758 10761 10766 10769 10771 10772 10772 10775 10778 10780 10779 10780
10545 10543 10542 10541 10540 10540 10540 10541 10542 10543 10545 10546 10547 10548 10549 10551 10553 10556 10560 10562 10565 10568 10570 10575 10579 10584 10588 10590 10599 10592 10576 10589 10604 10605 10609 10612 10616 10622 10627 10630 10634 10637 10640 10643 10647 10649 10650 10652 10657 10663 10667 10672 10675 10679 10685 10689 10691 10693 10696 10698 10701 10705 10709 10714 10718 10723 10729 10733 10736 10738 10739 10738 10739 10746 10749 10749 10753 10756 10759 10763 10766 10767 10768 10770 10773 10775 10774 10775
10535 10533 10532 10531 10530 10530 10530 10531 10532 10533 10535 10536 10538 10539 10540 10542 10545 10548 10551 10553 10556 10559 10563 10566 10570 10576 10579 10586 10590 10573 10568 10587 10597 10599 10604 10605 10609 10614 10619 10623 10625 10628 10631 10636 10639 10641 10643 10646 10652 10659 10662 10665 10669 10674 10679 10682 10686 10689 10691 10694 10696 10701 10705 10709 10712 10716 10721 10725 10728 10731 10731 10731 10730 10735 10740 10744 10747 10750 10754 10757 10759 10762 10764 10764 10766 10768 10769 10771
10524 10522 10521 10520 10519 10520 10520 10521 10522 10523 10525 10526 10528 10530 10531 10534 10536 10539 10541 10544 10547 10551 10554 10557 10562 10567 10572 10581 10574 10558 10567 10584 10588 10594 10597 10598 10603 10605 10610 10615 10617 10620 10623 10627 10630 10633 10636 10640 10648 10654 10655 10660 10665 10670 10673 10675 10681 10685 10687 10691 10693 10698 10702 10704 10706 10709 10713 10717 10721 10723 10723 10722 10721 10725 10733 10740 10744 10745 10748 10751 10754 10757 10759 10758 10759 10762 10765 10769
10514 10511 10510 10509 10508 10508 10509 10510 10511 10513 10514 10516 10518 10520 10523 10525 10527 10529 10532 10535 10538 10542 10546 10549 10554 10558 10566 10571 10557 10550 10566 10576 10582 10588 10588 10591 10595 10596 10601 10605 10609 10613 10615 10619 10622 10626 10630 10634 10642 10648 10652 10657 10660 10663 10668 10671 10677 10681 10684 10686 10690 10693 10695 10697 10700 10703 10707 10711 10714 10715 10715 10714 10713 10717 10727 10735 10740 10740 10741 10746 10750 10752 10753 10753 10753 10756 10761 10764
10503 10501 10499 10498 10497 10497 10498 10499 10500 10502 10504 10506 10508 10511 10513 10515 10517 10520 10523 10526 10529 10533 10536 10541 10546 10551 10559 10557 10543 10546 10561 10569 10575 10576 10578 10584 10586 10587 10590 10593 10599 10603 10607 10611 10615 10620 10623 10629 10638 10643 10648 10650 10653 10658 10663 10667 10672 10677 10679 10681 10684 10687 10688 10690 10693 10697 10701 10705 10707 10709 10709 10707 10705 10711 10720 10730 10736 10737 10736 10741 10745 10745 10747 10749 10749 10751 10755 10758
10491 10489 10488 10487 10486 10486 10487 10487 10489 10492 10494 10496 10498 10500 10503 10505 10507 10511 10514 10517 10521 10524 10527 10533 10538 10543 10549 10542 10533 10541 10553 10558 10560 10562 10570 10577 10576 10575 10576 10583 10590 10595 10600 10603 10608 10614 10618 10625 10633 10637 10641 10644 10649 10655 10658 10663 10669 10672 10675 10677 10678 10681 10682 10683 10687 10692 10695 10699 10702 10703 10703 10700 10699 10704 10714 10726 10731 10732 10732 10736 10738 10738 10742 10745 10745 10746 10749 10751
10481 10477 10476 10476 10475 10475 10475 10476 10478 10480 10483 10486 10488 10490 10491 10494 10498 10501 10505 10508 10512 10515 10519 10526 10530 10534 10537 10530 10527 10534 10540 10546 10550 10556 10566 10568 10565 10563 10566 10576 10583 10588 10594 10596 10601 10608 10612 10620 10628 10632 10636 10641 10646 10650 10655 10662 10667 10668 10670 10671 10673 10675 10675 10676 10681 10686 10689 10693 10696 10697 10696 10695 10694 10698 10708 10721 10725 10726 10727 10730 10732 10732 10737 10740 10740 10742 10744 10746
10471 10466 10463 10464 10464 10464 10464 10465 10466 10469 10472 10474 10477 10479 10481 10484 10488 10491 10496 10500 10504 10507 10512 10517 10520 10524 10524 10520 10522 10525 10531 10541 10547 10552 10560 10561 10558 10557 10562 10570 10576 10581 10586 10590 10596 10601 10608 10615 10621 10626 10632 10638 10643 10648 10654 10659 10660 10661 10662 10664 10666 10668 10670 10670 10674 10680 10684 10687 10689 10690 10690 10689 10690 10692 10703 10715 10719 10720 10721 10725 10728 10728 10731 10735 10735 10737 10740 10741
10460 10456 10452 10452 10452 10452 10453 10454 10455 10457 10460 10463 10465 10467 10470 10474 10477 10482 10488 10492 10496 10499 10503 10507 10512 10515 10513 10513 10516 10519 10526 10534 10539 10545 10552 10553 10551 10553 10558 10564 10570 10575 10580 10586 10592 10597 10603 10609 10615 10623 10631 10636 10640 10644 10648 10650 10650 10653 10654 10657 10660 10663 10665 10664 10668 10675 10679 10682 10685 10685 10683 10684 10685 10687 10697 10709 10713 10715 10717 10721 10724 10724 10725 10728 10730 10733 10736 10737
10448 10445 10441 10440 10440 10441 10441 10442 10443 10445 10448 10450 10454 10456 10460 10464 10468 10474 10479 10483 10486 10489 10493 10498 10503 10504 10503 10505 10508 10511 10517 10523 10529 10536 10540 10542 10542 10546 10551 10556 10564 10571 10577 10583 10586 10590 10596 10604 10614 10623 10627 10629 10631 10635 10639 10640 10641 10645 10648 10652 10656 10660 10662 10660 10663 10671 10674 10676 10679 10678 10677 10680 10680 10681 10691 10702 10708 10711 10714 10717 10720 10720 10719 10721 10726 10730 10731 10731
10435 10433 10430 10428 10428 10429 10429 10430 10431 10433 10435 10438 10442 10446 10450 10454 10459 10465 10469 10473 10476 10479 10485 10489 10493 10494 10492 10495 10499 10501 10508 10514 10520 10525 10530 10532 10533 10539 10545 10550 10557 10566 10573 10576 10577 10582 10590 10603 10613 10617 10617 10618 10621 10626 10630 10632 10635 10640 10645 10648 10652 10656 10658 10656 10658 10665 10668 10669 10671 10671 10673 10675 10673 10674 10684 10696 10704 10708 10711 10713 10714 10714 10714 10716 10720 10723 10725 10727
10422 10420 10417 10415 10416 10416 10417 10418 10419 10421 10423 10426 10431 10435 10440 10444 10449 10456 10460 10464 10467 10470 10475 10478 10484 10485 10479 10485 10492 10495 10502 10508 10511 10516 10521 10523 10527 10535 10539 10543 10550 10558 10562 10564 10569 10578 10590 10602 10607 10606 10607 10610 10614 10619 10624 10627 10630 10636 10640 10644 10649 10651 10651 10650 10653 10659 10663 10664 10664 10664 10667 10669 10666 10669 10678 10690 10699 10704 10707 10707 10709 10709 10709 10710 10713 10716 10719 10723
10409 10407 10404 10402 10403 10404 10404 10406 10407 10409 10412 10416 10420 10424 10430 10434 10440 10447 10451 10456 10457 10459 10465 10468 10474 10474 10469 10477 10486 10489 10495 10499 10501 10506 10511 10516 10523 10527 10530 10536 10542 10546 10551 10559 10567 10576 10587 10595 10596 10596 10600 10603 10608 10614 10619 10622 10626 10632 10637 10642 10645 10645 10645 10645 10647 10652 10656 10658 10657 10656 10659 10661 10661 10666 10674 10685 10694 10699 10702 10703 10704 10705 10704 10705 10708 10711 10715 10718
10396 10394 10392 10390 10391 10392 10393 10394 10395 10398 10401 10406 10410 10414 10419 10424 10431 10437 10440 10445 10446 10448 10455 10459 10465 10466 10460 10465 10478 10484 10487 10489 10492 10498 10503 10510 10515 10517 10523 10529 10531 10536 10545 10555 10561 10569 10579 10584 10583 10587 10592 10596 10602 10608 10612 10617 10622 10629 10633 10637 10639 10636 10635 10635 10638 10644 10649 10652 10651 10650 10654 10655 10657 10663 10670 10681 10689 10694 10697 10698 10699 10700 10701 10703 10704 10707 10710 10711
10382 10381 10379 10378 10379 10380 10381 10383 10384 10387 10392 10396 10400 10403 10409 10414 10420 10426 10430 10436 10437 10438 10446 10450 10453 10453 10447 10458 10475 10479 10478 10482 10486 10491 10496 10503 10507 10511 10516 10519 10523 10531 10540 10546 10552 10560 10569 10572 10574 10579 10585 10589 10594 10600 10606 10612 10617 10623 10627 10630 10629 10627 10624 10625 10632 10639 10643 10648 10647 10646 10649 10650 10652 10658 10667 10677 10685 10689 10691 10691 10693 10695 10697 10699 10700 10702 10703 10703
10370 10369 10368 10367 10368 10369 10370 10372 10374 10378 10382 10386 10389 10394 10400 10404 10411 10417 10422 10427 10428 10428 10436 10440 10440 10440 10444 10457 10467 10467 10471 10476 10477 10480 10488 10494 10498 10502 10506 10511 10520 10526 10529 10534 10542 10551 10559 10564 10567 10573 10579 10582 10587 10595 10601 10607 10612 10618 10621 10621 10620 10618 10615 10618 10627 10633 10639 10642 10639 10639 10642 10643 10644 10652 10664 10673 10679 10683 10684 10686 10688 10690 10693 10694 10695 10697 10696 10696
10357 10357 10356 10355 10357 10358 10359 10362 10365 10369 10373 10376 10380 10386 10390 10394 10402 10408 10412 10416 10417 10418 10426 10430 10430 10434 10443 10450 10454 10459 10468 10468 10466 10472 10479 10483 10487 10491 10497 10505 10513 10517 10519 10523 10533 10545 10553 10557 10562 10568 10574 10578 10585 10594 10598 10603 10610 10612 10611 10610 10613 10611 10607 10610 10621 10628 10633 10633 10632 10634 10636 10637 10639 10650 10661 10667 10673 10677 10678 10681 10683 10685 10688 10689 10690 10691 10691 10691
10345 10345 10345 10344 10346 10348 10349 10352 10355 10360 10364 10367 10372 10378 10380 10385 10392 10397 10401 10405 10408 10411 10417 10420 10422 10429 10436 10442 10448 10455 10457 10455 10458 10464 10467 10470 10477 10482 10490 10499 10505 10508 10510 10517 10531 10541 10545 10551 10558 10563 10568 10576 10584 10589 10590 10596 10604 10601 10598 10602 10606 10602 10598 10603 10614 10622 10624 10625 10627 10630 10632 10632 10637 10648 10657 10661 10667 10673 10675 10677 10679 10681 10683 10683 10685 10686 10686 10687
10332 10333 10333 10333 10335 10337 10338 10342 10347 10351 10355 10359 10364 10368 10371 10376 10382 10386 10392 10396 10399 10403 10408 10411 10416 10423 10428 10434 10441 10443 10444 10446 10451 10454 10457 10463 10470 10476 10484 10490 10494 10497 10502 10512 10523 10528 10534 10544 10549 10553 10563 10572 10577 10578 10580 10590 10595 10589 10589 10596 10597 10593 10591 10597 10609 10616 10617 10621 10626 10628 10629 10629 10633 10644 10653 10656 10662 10669 10672 10673 10674 10677 10679 10678 10680 10681 10681 10681
10318 10319 10321 10322 10325 10327 10327 10333 10339 10342 10346 10351 10355 10358 10363 10368 10373 10378 10384 10387 10390 10395 10400 10404 10409 10415 10420 10427 10431 10432 10434 10437 10440 10446 10451 10456 10461 10467 10472 10476 10479 10485 10493 10503 10511 10517 10526 10532 10536 10545 10558 10563 10564 10567 10573 10583 10584 10577 10582 10589 10588 10587 10587 10592 10604 10609 10612 10620 10624 10625 10626 10626 10629 10639 10648 10652 10657 10663 10666 10668 10669 10672 10673 10672 10673 10674 10675 10675
10304 10305 10308 10310 10313 10315 10317 10324 10330 10333 10338 10343 10346 10351 10357 10361 10366 10371 10376 10378 10382 10388 10393 10398 10403 10408 10414 10420 10423 10424 10426 10428 10433 10441 10444 10447 10452 10458 10462 10466 10472 10478 10485 10495 10504 10512 10518 10524 10534 10544 10550 10552 10555 10561 10568 10574 10574 10571 10577 10581 10581 10583 10583 10588 10598 10603 10610 10620 10621 10620 10621 10622 10626 10634 10643 10648 10653 10657 10660 10662 10664 10665 10666 10665 10666 10667 10668 10670
10291 10292 10295 10298 10301 10303 10307 10315 10321 10324 10330 10335 10339 10345 10350 10354 10358 10363 10367 10369 10375 10383 10388 10392 10397 10401 10407 10412 10414 10416 10418 10421 10428 10434 10437 10441 10445 10450 10457 10465 10472 10478 10486 10495 10501 10506 10514 10524 10533 10538 10541 10545 10551 10557 10563 10568 10569 10569 10573 10576 10578 10580 10581 10585 10593 10600 10610 10615 10614 10614 10615 10618 10623 10629 10637 10643 10647 10651 10654 10655 10657 10658 10659 10660 10661 10662 10664 10667
10279 10280 10282 10286 10289 10291 10298 10306 10311 10315 10321 10326 10332 10338 10343 10347 10350 10354 10358 10362 10369 10377 10382 10386 10390 10394 10399 10403 10404 10407 10411 10414 10420 10426 10430 10434 10437 10442 10449 10458 10465 10474 10484 10491 10494 10501 10510 10518 10525 10531 10537 10542 10549 10554 10560 10566 10568 10568 10569 10573 10575 10577 10579 10585 10590 10597 10604 10608 10608 10608 10610 10616 10620 10622 10629 10636 10641 10645 10646 10647 10650 10652 10653 10654 10655 10656 10659 10662
10268 10270 10272 10275 10278 10282 10289 10297 10301 10306 10313 10319 10325 10331 10335 10338 10342 10347 10352 10356 10363 10371 10376 10380 10384 10387 10391 10394 10397 10401 10404 10408 10413 10419 10424 10427 10430 10436 10443 10450 10459 10467 10474 10479 10485 10496 10505 10513 10524 10532 10537 10541 10546 10552 10556 10559 10561 10562 10564 10566 10569 10573 10578 10582 10585 10590 10597 10600 10600 10600 10605 10612 10616 10618 10624 10630 10636 10639 10640 10641 10644 10646 10647 10647 10648 10650 10655 10658
10259 10261 10263 10265 10269 10275 10281 10287 10292 10298 10305 10311 10319 10325 10327 10329 10336 10342 10345 10351 10358 10364 10369 10374 10378 10379 10382 10386 10391 10394 10397 10400 10405 10411 10417 10422 10426 10432 10440 10448 10455 10461 10466 10473 10482 10491 10499 10510 10520 10526 10530 10535 10540 10544 10547 10549 10554 10557 10556 10558 10565 10571 10573 10573 10576 10583 10589 10590 10590 10593 10600 10608 10612 10615 10620 10625 10631 10635 10635 10636 10639 10640 10641 10641 10642 10646 10651 10654
10251 10253 10254 10257 10262 10267 10272 10277 10284 10290 10297 10305 10313 10316 10317 10323 10331 10335 10339 10346 10352 10358 10364 10368 10370 10371 10375 10380 10385 10387 10391 10395 10400 10406 10411 10416 10421 10426 10433 10441 10448 10454 10461 10471 10480 10486 10494 10504 10509 10515 10522 10526 10530 10535 10538 10543 10549 10552 10552 10559 10567 10565 10561 10563 10569 10577 10581 10582 10583 10588 10596 10603 10608 10613 10617 10622 10628 10631 10632 10632 10633 10634 10634 10635 10638 10641 10646 10649
10244 10246 10247 10251 10255 10258 10262 10268 10276 10283 10291 10299 10303 10305 10310 10319 10325 10329 10334 10340 10346 10352 10358 10362 10364 10365 10369 10374 10378 10381 10385 10390 10396 10402 10406 10410 10415 10420 10427 10434 10441 10448 10456 10466 10473 10480 10490 10497 10501 10509 10516 10519 10524 10527 10530 10536 10542 10545 10553 10560 10557 10548 10549 10557 10564 10570 10575 10577 10580 10587 10594 10600 10604 10608 10613 10618 10623 10627 10629 10627 10625 10626 10628 10629 10631 10635 10641 10644
10237 10239 10241 10244 10247 10249 10254 10261 10268 10277 10286 10292 10294 10298 10306 10314 10318 10322 10328 10334 10340 10346 10352 10356 10359 10361 10364 10368 10372 10376 10381 10387 10392 10397 10401 10406 10410 10416 10423 10430 10437 10444 10450 10458 10465 10473 10481 10487 10493 10502 10509 10513 10517 10519 10524 10533 10538 10544 10550 10548 10540 10540 10548 10556 10561 10566 10572 10575 10580 10586 10592 10596 10600 10605 10609 10611 10613 10616 10619 10618 10617 10619 10621 10622 10625 10631 10636 10638
10231 10233 10235 10237 10240 10244 10249 10255 10263 10273 10280 10283 10286 10294 10302 10307 10311 10316 10322 10329 10335 10341 10346 10350 10354 10356 10359 10363 10368 10373 10377 10383 10388 10392 10397 10402 10406 10411 10418 10426 10433 10440 10445 10452 10459 10466 10473 10479 10486 10495 10501 10505 10509 10515 10525 10533 10536 10540 10541 10537 10537 10542 10549 10553 10557 10562 10565 10570 10577 10582 10587 10592 10596 10600 10603 10605 10607 10608 10609 10611 10613 10614 10615 10618 10622 10627 10631 10633
10227 10228 10230 10233 10236 10241 10246 10252 10260 10268 10272 10274 10280 10288 10295 10301 10306 10312 10319 10326 10331 10336 10342 10346 10349 10352 10356 10360 10364 10368 10373 10378 10383 10388 10393 10397 10401 10406 10413 10420 10427 10434 10440 10447 10454 10459 10465 10472 10481 10488 10492 10497 10507 10520 10528 10529 10530 10533 10535 10536 10539 10543 10546 10549 10552 10555 10558 10564 10572 10577 10583 10587 10589 10593 10596 10598 10602 10604 10605 10607 10609 10610 10613 10617 10620 10623 10626 10627
10224 10225 10227 10230 10233 10237 10242 10247 10254 10258 10261 10267 10275 10283 10290 10296 10302 10308 10315 10321 10326 10332 10338 10342 10345 10349 10353 10356 10360 10364 10370 10375 10379 10385 10390 10394 10397 10403 10410 10418 10424 10429 10433 10440 10447 10454 10461 10468 10476 10481 10488 10499 10513 10521 10520 10518 10521 10525 10529 10532 10533 10536 10540 10543 10547 10551 10554 10558 10565 10572 10576 10579 10580 10585 10589 10592 10595 10597 10599 10601 10603 10606 10610 10614 10616 10618 10620 10621
10221 10222 10224 10227 10230 10234 10237 10241 10245 10250 10256 10264 10272 10280 10287 10292 10298 10305 10311 10316 10321 10328 10333 10337 10342 10346 10349 10352 10356 10361 10367 10372 10376 10381 10385 10391 10396 10401 10407 10414 10419 10423 10428 10436 10445 10451 10457 10464 10470 10478 10488 10500 10508 10509 10507 10509 10513 10517 10521 10524 10526 10529 10534 10540 10545 10548 10548 10551 10557 10564 10568 10570 10574 10578 10582 10584 10587 10589 10591 10594 10597 10601 10605 10608 10610 10611 10613 10616
10220 10221 10223 10225 10228 10231 10235 10239 10243 10248 10255 10263 10270 10277 10283 10289 10295 10301 10306 10311 10318 10324 10330 10334 10339 10343 10347 10349 10354 10359 10364 10369 10374 10378 10382 10387 10393 10397 10402 10408 10412 10418 10425 10433 10439 10444 10451 10458 10465 10476 10486 10493 10496 10496 10496 10501 10505 10511 10518 10521 10523 10527 10533 10539 10541 10541 10542 10545 10551 10557 10562 10565 10569 10572 10575 10577 10580 10583 10585 10589 10593 10597 10600 10602 10604 10606 10608 10612
10220 10221 10223 10225 10228 10231 10235 10239 10244 10249 10255 10262 10268 10274 10280 10285 10291 10296 10302 10309 10316 10322 10328 10333 10337 10341 10344 10347 10352 10356 10361 10365 10370 10375 10379 10383 10387 10393 10400 10405 10409 10416 10424 10430 10435 10442 10449 10455 10463 10473 10480 10484 10487 10488 10491 10498 10505 10512 10517 10520 10521 10525 10530 10534 10535 10536 10539 10542 10547 10553 10558 10562 10564 10566 10568 10571 10574 10577 10581 10585 10590 10593 10595 10596 10598 10601 10605 10608
10221 10222 10224 10226 10228 10232 10236 10240 10244 10250 10255 10261 10267 10273 10278 10284 10289 10296 10302 10309 10316 10322 10327 10330 10333 10336 10339 10343 10348 10353 10357 10361 10366 10371 10375 10379 10383 10388 10395 10401 10407 10414 10421 10426 10431 10437 10444 10451 10459 10467 10475 10481 10485 10489 10495 10501 10506 10511 10514 10516 10518 10520 10525 10528 10529 10533 10537 10539 10543 10548 10552 10557 10560 10560 10562 10565 10568 10572 10576 10581 10584 10587 10589 10591 10593 10597 10601 10604
10222 10223 10225 10227 10229 10232 10236 10240 10245 10249 10255 10261 10267 10273 10279 10285 10292 10299 10305 10311 10317 10320 10323 10326 10329 10333 10336 10340 10344 10349 10354 10358 10363 10368 10371 10375 10380 10385 10391 10398 10405 10412 10416 10419 10425 10432 10439 10445 10453 10461 10468 10475 10480 10484 10489 10492 10496 10502 10506 10509 10511 10514 10518 10521 10523 10528 10533 10534 10537 10541 10546 10551 10553 10554 10556 10559 10562 10567 10570 10574 10577 10580 10583 10585 10588 10592 10596 10598
10224 10225 10226 10228 10230 10233 10237 10241 10245 10250 10256 10263 10269 10276 10282 10288 10294 10300 10305 10309 10312 10315 10318 10323 10328 10333 10336 10339 10343 10347 10352 10357 10361 10365 10368 10373 10379 10385 10390 10397 10403 10409 10413 10417 10422 10429 10435 10441 10448 10455 10461 10466 10471 10474 10478 10482 10488 10493 10497 10500 10503 10507 10511 10515 10520 10525 10527 10528 10532 10536 10540 10544 10547 10548 10550 10552 10556 10560 10563 10567 10570 10573 10577 10581 10584 10588 10591 10593
10228 10228 10229 10231 10233 10236 10240 10244 10248 10254 10260 10266 10272 10277 10282 10287 10291 10296 10300 10303 10307 10311 10316 10322 10326 10331 10335 10338 10342 10347 10351 10356 10359 10362 10365 10370 10375 10381 10387 10391 10398 10404 10410 10416 10422 10427 10433 10438 10445 10451 10455 10461 10466 10469 10474 10479 10483 10487 10490 10494 10498 10502 10506 10511 10516 10519 10520 10523 10528 10532 10535 10538 10540 10542 10544 10547 10550 10553 10557 10560 10564 10568 10573 10576 10580 10583 10585 10588
10232 10233 10233 10235 10236 10238 10242 10245 10250 10255 10261 10266 10271 10275 10280 10285 10289 10293 10298 10302 10306 10310 10316 10321 10325 10329 10334 10337 10341 10345 10350 10353 10356 10359 10362 10366 10371 10376 10381 10386 10392 10398 10406 10413 10419 10425 10431 10436 10442 10447 10451 10456 10462 10466 10471 10476 10479 10483 10487 10491 10495 10499 10503 10508 10511 10513 10515 10520 10525 10527 10530 10532 10534 10536 10539 10542 10545 10548 10551 10555 10559 10564 10569 10573 10576 10578 10580 10582
10238 10238 10238 10239 10241 10242 10245 10248 10252 10256 10261 10266 10271 10276 10282 10287 10291 10295 10299 10304 10307 10311 10315 10320 10324 10328 10332 10336 10340 10344 10348 10351 10355 10358 10362 10365 10369 10374 10379 10385 10390 10396 10403 10410 10416 10422 10428 10434 10439 10444 10447 10452 10458 10463 10468 10472 10477 10481 10485 10489 10493 10497 10501 10505 10508 10511 10514 10518 10521 10523 10526 10529 10531 10533 10536 10539 10543 10545 10548 10551 10556 10560 10565 10569 10571 10573 10576 10578
10242 10243 10243 10244 10246 10248 10250 10253 10256 10260 10264 10269 10273 10278 10282 10286 10290 10295 10299 10302 10306 10310 10314 10318 10322 10326 10330 10334 10338 10342 10345 10349 10353 10357 10361 10365 10369 10374 10379 10385 10391 10396 10402 10408 10414 10419 10424 10430 10436 10440 10444 10450 10455 10460 10465 10469 10474 10478 10482 10486 10490 10494 10498 10502 10505 10509 10511 10514 10516 10519 10523 10525 10527 10529 10533 10536 10540 10542 10544 10548 10552 10557 10561 10564 10566 10569 10572 10573
10245 10247 10247 10248 10249 10251 10254 10256 10258 10262 10265 10269 10273 10276 10280 10284 10288 10292 10296 10299 10303 10307 10312 10316 10320 10325 10329 10332 10336 10339 10342 10346 10351 10355 10360 10364 10369 10374 10378 10384 10390 10396 10401 10406 10411 10416 10421 10427 10433 10437 10442 10447 10453 10457 10462 10466 10470 10474 10479 10484 10488 10492 10495 10498 10500 10503 10506 10508 10511 10515 10518 10520 10521 10524 10528 10532 10535 10538 10540 10544 10549 10553 10557 10559 10562 10565 10566 10568